Cumari, Brazil
Current Conditions -  °F | °C
As of 5:00 AM on Monday 24 Nov 2014 (Local Time) from SBUL Reporting Station
Broken Clouds Broken Clouds  
Wind Chill: 68°   Ceiling: 200
Heat Index: 68°   Visibility: 6mi
Dew Point: 66°   Wind: 7mph
Humidity: 94%   Direction: 360°N
Pressure: 30"   Gusts: NA
Location:  18.26°S, 48.15°W
Report Text: SBUL 240700Z 36006KT 9999 BKN002 20/19 Q1016
Loading
Personal Weather Stations






























Interactive Weather Map New forecast layout! Learn more

10-Day Weather Forecast

Advertisements
Track Severe Weather on mobile